Hourly Data Report for July 17, 2021

BONAVISTA
NEWFOUNDLAND
Current Station Operator: ECCC - MSC

48°40'02.000" N
53°06'51.000" W
25.60 m
8400601
71178
AVA

Download Data

Hourly Data (July 2021)
Hourly Data Report for July 17, 2021
TIME
LST
Temp Definition
°C
Dew Point Definition
°C
Rel Hum Definition
%
Precip. Amount Definition
mm

Wind Dir Definition
10's deg

Wind Spd Definition
km/h
Visibility Definition
km
Stn Press Definition
kPa
Hmdx Definition


Wind Chill Definition


Weather Definition


00:30 15.4 13.8 90 0.0 20 25   101.35     LegendNANA
01:30 14.8 13.6 93 0.0 19 26   101.31     LegendNANA
02:30 14.9 13.7 92 0.0 18 20   101.27     LegendNANA
03:30 16.8 14.4 86 0.0 20 33   101.21     LegendNANA
04:30 16.5 14.3 87 0.0 20 30   101.24     LegendNANA
05:30 16.8 14.6 87 0.0 21 32   101.21     LegendNANA
06:30 17.0 15.4 90 0.0 21 20   101.19     LegendNANA
07:30 19.5 15.6 78 0.0 22 23   101.15     LegendNANA
08:30 18.4 15.6 84 0.0 22 22   101.12     LegendNANA
09:30 22.1 18.0 78 0.0 21 38   101.09 28   LegendNANA
10:30 22.9 18.3 75 0.0 21 43   101.05 29   LegendNANA
11:30 21.9 18.2 79 0.0 20 43   100.98 28   LegendNANA
12:30 22.7 18.4 77 0.0 20 44   100.92 29   LegendNANA
13:30 22.0 17.9 78 0.0 21 38   100.94 28   LegendNANA
14:30 21.3 17.9 81 0.0 21 29   100.94 27   LegendNANA
15:30 20.3 17.2 83 0.0 22 27   100.93 26   LegendNANA
16:30 20.8 17.3 80 0.0 20 23   100.95 26   LegendNANA
17:30 20.5 16.6 78 0.0 22 17   100.96 26   LegendNANA
18:30 19.7 16.6 82 0.0 22 21   100.94     LegendNANA
19:30 19.0 16.2 83 0.0 21 21   100.96     LegendNANA
20:30 18.0 15.7 87 0.0 25 11   101.07     LegendNANA
21:30 17.5 15.3 87 0.0 21 8   101.07     LegendNANA
22:30 17.6 15.7 89 0.0 23 5   101.09     LegendNANA
23:30 14.3 13.3 94 0.0 23 8   101.06     LegendNANA

Notes on Data Quality.

Legend

  • E = Estimated
  • M = Missing
  • NA = Not Available*
  • [empty] = Indicates an unobserved value
Date modified: